TimeMDT,TemperatureF,Dew PointF,Humidity,Sea Level PressureIn,VisibilityMPH,Wind Direction,Wind SpeedMPH,Gust SpeedMPH,PrecipitationIn,Events,Conditions,WindDirDegrees,DateUTC
12:53 AM,44.1,18.0,35,30.05,10.0,SSE,6.9,-,N/A,,Clear,160,2013-06-01 06:53:00
1:53 AM,43.0,17.1,35,30.08,10.0,SE,5.8,-,N/A,,Clear,130,2013-06-01 07:53:00
2:53 AM,39.9,19.9,45,30.09,10.0,South,5.8,-,N/A,,Clear,170,2013-06-01 08:53:00
3:53 AM,39.9,19.9,45,30.10,10.0,SSE,6.9,-,N/A,,Clear,160,2013-06-01 09:53:00
4:53 AM,39.0,19.9,46,30.12,10.0,SSE,8.1,-,N/A,,Clear,160,2013-06-01 10:53:00
5:53 AM,39.0,19.9,46,30.13,10.0,SE,9.2,-,N/A,,Clear,140,2013-06-01 11:53:00
6:53 AM,44.1,19.9,38,30.14,10.0,SSE,8.1,-,N/A,,Clear,150,2013-06-01 12:53:00
7:53 AM,50.0,21.0,32,30.13,10.0,SE,5.8,-,N/A,,Clear,140,2013-06-01 13:53:00
8:53 AM,55.9,21.9,27,30.12,10.0,Variable,3.5,-,N/A,,Clear,0,2013-06-01 14:53:00
9:53 AM,59.0,19.9,22,30.13,10.0,East,4.6,-,N/A,,Clear,100,2013-06-01 15:53:00
10:53 AM,62.1,19.0,19,30.13,10.0,Variable,3.5,-,N/A,,Clear,0,2013-06-01 16:53:00
11:53 AM,64.0,18.0,17,30.14,10.0,Variable,3.5,-,N/A,,Clear,0,2013-06-01 17:53:00
12:53 PM,66.0,17.1,15,30.11,10.0,Calm,Calm,-,N/A,,Clear,0,2013-06-01 18:53:00
1:53 PM,66.9,18.0,15,30.09,10.0,Variable,4.6,-,N/A,,Clear,0,2013-06-01 19:53:00
2:53 PM,70.0,19.0,14,30.07,10.0,Variable,5.8,-,N/A,,Clear,0,2013-06-01 20:53:00
3:53 PM,72.0,19.9,14,30.05,10.0,NE,6.9,-,N/A,,Clear,40,2013-06-01 21:53:00
4:53 PM,72.0,19.9,14,30.02,10.0,Calm,Calm,-,N/A,,Clear,0,2013-06-01 22:53:00
5:53 PM,73.0,21.0,14,30.01,10.0,Calm,Calm,-,N/A,,Clear,0,2013-06-01 23:53:00
6:53 PM,73.0,21.0,14,29.98,10.0,NE,6.9,-,N/A,,Clear,40,2013-06-02 00:53:00
7:53 PM,71.1,23.0,16,29.96,10.0,NNW,3.5,-,N/A,,Clear,330,2013-06-02 01:53:00
8:53 PM,66.0,30.0,26,29.96,10.0,SW,3.5,-,N/A,,Clear,230,2013-06-02 02:53:00
9:53 PM,57.9,30.0,35,30.00,10.0,SE,9.2,-,N/A,,Clear,130,2013-06-02 03:53:00
10:53 PM,55.9,25.0,30,30.01,10.0,SE,9.2,-,N/A,,Clear,130,2013-06-02 04:53:00
11:53 PM,55.0,21.9,28,30.01,10.0,SE,11.5,-,N/A,,Clear,130,2013-06-02 05:53:00